Showing default

SATGUS, 62713

Orbit data source: Space-Track

SATGUS, 62713 is an American payload satellite in SSO that was launched on Tue, 14 Jan 2025 UTC via an FALCON 9 launch vehicle from the Air Force Western Test Range (AFWTR). Payload-class satellites include a variety of spacecraft equipped with specific instruments for various scientific and technological missions. These include communications satellites like Starlink; space stations such as the ISS; scientific satellites like the Hubble; Earth observation satellites from companies like Planet Labs, Umbra, and HawkEye 360; GPS; miniature CubeSats for education and research; and military/defense satellites.

Loading next visibility...
Identifier
62713, 2025-009DJ
Orbit
SSO
Country
Flag of USUS
Related business
Manufacturer
Terran Orbital
Mission
Operational Commercial Imaging
Bus & Motor
CUBESAT 12U, Unknown motor
Mass
~20 kg wet, ~20 kg dry
Launch date (UTC)
2025-01-14 (1 year ago)
Launch vehicle
FALCON 9
Launch site
Air Force Western Test Range (AFWTR)
Object type
Payload
Rocket body
Debris
Shape & HBR
Box, 0.6 m
Radar Cross Section
0.123 m², Medium (>0.1 m² and < 1m²)

Expand to show TLE details & history
Last TLE update: 19 hours ago

TLE from 19 hours ago
0 SATGUS
1 62713U 25009DJ  26126.19678118  .00005880  00000-0  46849-3 0  9998
2 62713  97.7043 207.9634 0006304 232.1226 127.9428 15.00714935 71267
Epoch: 2026-05-06T04:43Z
TLE epoch observation values (Epoch: 2026-05-06T04:43:21.893Z)
Latitude
-0.00006°
Longitude
-86.93855°
Altitude
570.439 km
Speed
7.574 km/s
True Right ascension
13h 51m 51s
True Declination
0° 00' 00"
Sunlit
Object was in full shadow at epoch
Visualization orbit readout
Latitude
Unknown
Longitude
Unknown
Altitude
Unknown
Speed
Unknown
Apparent Right ascension
Unknown
Apparent Declination
Unknown
Sunlit
N/A
Visualization observer readout
Local Sidereal Time
07:58:18
Azimuth
Unknown
Elevation
Unknown
Doppler factor
Unknown
Orbital elements
Apogee altitude
566.07 km
Perigee altitude
557.32 km
Semi-major axis
6,939.832 km
Eccentricity
0.00063
Inclination
97.7043°
RAAN
207.9634°
Arg. of periapsis
232.1226°
True anomaly
127.99974°
Mean anomaly
127.9428°
Eccentric anomaly
127.97127°
Mean motion
3.75422 °/min
Orbital period
95.89 mins
BSTAR
0.00046849
Loading maneuver chart data...
Computing Atmospheric mass density...
Loading historical data...
Loading historical data...
Loading historical data...
Loading historical data...
Loading historical data...
Loading historical data...
Loading historical data...

Documentation

Showing up to 5 results
|